DELTA 1 DEB, 42080

Orbit data source: Space-Track

DELTA 1 DEB, 42080 is space debris in SSO originally from a launch on Sun, 15 Dec 1968 UTC launched from the Air Force Western Test Range (AFWTR). Debris objects in space refer to the collection of defunct objects orbiting the Earth. Examples of debris include non-operational satellites, rocket bodies, and fragments generated from explosions, collisions, or faulty payload assembly.

Loading next visibility...
DELTA 1 DEB details
Identifier
42080, 1968-114G
Orbit
SSO
Last TLE update19 hours ago
Origin
Flag of USGSFC (US)
ManufacturerAerojet
MissionSpacecraft
Bus & MotorUnknown
MassUnknown
Launch date (UTC)
1968-12-15 (56 years ago)
Launch vehicleUnknown
Launch site
Air Force Western Test Range (AFWTR)
Object type
Payload
Rocket body
Debris
Shape & HBRUnknown
Radar Cross SectionSmall (<0.1 m²)

Expand to show TLE details & history

TLE from 19 hours ago
0 DELTA 1 DEB
1 42080U 68114G   24361.06548091 -.00000037  00000-0  44874-4 0  9995
2 42080 101.7748 299.5105 0067707 140.0207 231.9091 12.39287457501959
Epoch: 2024-12-26T01:34Z
Definitive object data (Epoch: 2024-12-26T01:34:17.55Z)
Latitude11.03884°
Longitude178.56787°
Altitude1,544.609 km
Speed7.08 km/s
True Right ascension19h 48m 45s
True Declination10° 58' 51"
Sunlit
Object was in daylight at TLE epoch
Visualization TLE readout
Latitude-41.9955°
Longitude-9.1287°
Altitude1,519.808 km
Speed7.107 km/s
Apparent Right ascension07h 23m 57s
Apparent Declination-40° 54' 29"
Sunlit
Object is in daylight
Visualization observer readout
Local Sidereal Time19:31:08
Azimuth126.566° SE
Elevation-88.312°
Doppler factor1
Orbital elements
Apogee altitude1,560.577 km
Perigee altitude1,453.798 km
Semi-major axis7,885.324 km
Eccentricity0.0067707
Inclination101.7748°
RAAN299.5105°
Arg. of periapsis140.0207°
True anomaly231.30165°
Mean anomaly231.9091°
Eccentric anomaly231.60506°
Mean motion3.09966 °/min
BSTAR0.000044874
Orbital period116.14 mins
Loading maneuver chart data...
Loading historical data...
Loading historical data...
Loading historical data...
Loading historical data...
Loading historical data...
Loading historical data...
Loading historical data...

DELTA 1 DEB Visibility forecast

Observer location: undefined°, undefined

Span
Click to sort rows by Start time (UTC) header in descending order
Start Az.
Max El. time (UTC)
Max El. Az.
Max El.
End time (UTC)
End Az.
14 mins2024-12-26 20:58:21.542Z199.4° SSW2024-12-26 21:05:21.542Z261.427° W31.267°2024-12-26 21:12:21.542Z323.982° NNW
7 mins2024-12-27 07:17:21.542Z67.496° ENE2024-12-27 07:20:21.542Z91.557° ESE15.472°2024-12-27 07:24:21.542Z122.17° SE
15 mins2024-12-27 09:08:21.542Z18.358° NNE2024-12-27 09:15:21.542Z125.393° SE44.958°2024-12-27 09:23:21.542Z198.18° SSW
9 mins2024-12-27 11:04:21.542Z341.916° N2024-12-27 11:08:21.542Z307.337° NW20.388°2024-12-27 11:13:21.542Z266.653° W
12 mins2024-12-27 18:22:21.542Z102.293° ESE2024-12-27 18:27:21.542Z58.021° ENE25.889°2024-12-27 18:34:21.542Z1.677° NNE
|